Regional Weather Roundup
Issued by NWS

Home | Current Version | Previous Version | Text Only | Print | Product List | Glossary On
Versions: 1 2 3 4 5 6 7 8 9 10 11 12 13 14 15 16 17 18 19 20 21 22 23 24 25 26 27 28 29 30 31 32 33 34 35 36 37 38 39 40 41 42 43 44 45 46 47 48 49 50
865
ASHW40 PHFO 011212
RWRHI

WEATHER ROUNDUP FOR HAWAII
NATIONAL WEATHER SERVICE HONOLULU HI
200 AM HST SUN MAY 01 2016

THIS IS AN AUTOMATED REPORT THAT HAS NOT BEEN QUALITY CONTROLLED.

NOTE..."FAIR" INDICATES FEW OR NO CLOUDS BELOW 12,000 FEET WITH NO
SIGNIFICANT WEATHER AND/OR OBSTRUCTIONS TO VISIBILITY.

* - THESE SITES REPORT LIMITED FIELDS

HIZ001>004-011300-
KAUAI-NIIHAU-

CITY           SKY/WX    TMP DP  RH WIND       PRES   REMARKS
LIHUE APT      PTCLDY    77  68  73 NE17      30.11F
PORT ALLEN*      N/A     75 N/A N/A NE13        N/A
POIPU*           N/A     75 N/A N/A NE7G16      N/A
PRINCEVILLE*     N/A     73 N/A N/A E8G15       N/A
KOKOLE POINT*  NOT AVBL
MOLOAA DAIRY*    N/A     73  68  83 E3G12       N/A
WAIMEA HTS*    NOT AVBL
PUU OPAE*      NOT AVBL
PUU LUA*       NOT AVBL
MAKAHA RIDGE*  NOT AVBL
$$

HIZ005>011-011300-
OAHU-

CITY           SKY/WX    TMP DP  RH WIND       PRES   REMARKS
HONOLULU       MOCLDY    75  65  70 NE12      30.08F
KALAELOA       CLOUDY    72  65  78 CALM      30.09F
KANEOHE MCB    CLEAR     76  66  71 E13G21    30.07F
WHEELER FIELD  FAIR      72  65  78 E3        30.09F
BELLOWS*       NOT AVBL
KAHUKU*        NOT AVBL
WHEELER*       NOT AVBL
WAIANAE HARBOR NOT AVBL
DILLINGHAM*      N/A     70  64  83 MISG        N/A
KAHUKU TRN*      N/A     72  64  78 CALM        N/A
KAWAILOA*        N/A     70  63  78 E13G23      N/A
KII*             N/A     75  68  78 E20G26      N/A
MAKUA RANGE*     N/A     88  79  74 NE6G15      N/A  HX 102
OAHU FOREST NW NOT AVBL
SCHOFIELD BRK*   N/A     68  63  83 W1          N/A
SCHOFIELD S*   NOT AVBL
WAIANAE VLY*   NOT AVBL
KUAOKALA*      NOT AVBL
HONOULIUULI*   NOT AVBL
MOKUOLOE IS*   NOT AVBL
PALEHUA*       NOT AVBL
WAIAWA PHB*    NOT AVBL
$$

HIZ012>013-011300-
MOLOKAI-

CITY           SKY/WX    TMP DP  RH WIND       PRES   REMARKS
MOLOKAI AIRPT  MOCLDY    73  65  75 NE12G20   30.09F
KALAUPAPA      NOT AVBL
MAKAPULAPAI*   NOT AVBL
MOLOKAI 1*     NOT AVBL
PUU ALII*      NOT AVBL
$$

HIZ016-011300-
KAHOOLAWE-

CITY           SKY/WX    TMP DP  RH WIND       PRES   REMARKS
KAHOOLAWE*     NOT AVBL
HAKIOAWA*      NOT AVBL
HONOKANAIA*      N/A     76  66  71 NE14G25     N/A
KANELOA*         N/A     73  66  78 NE14G33   30.13F
KEALIALALO*    NOT AVBL
LUA MAKIKA*    NOT AVBL
$$

HIZ014>015-011300-
LANAI-

CITY           SKY/WX    TMP DP  RH WIND       PRES   REMARKS
LANAI CITY     FAIR      68  63  84 NE13G18   30.11F
LANAI 1*       NOT AVBL
$$

HIZ017>028-011300-
MAUI-

CITY           SKY/WX    TMP DP  RH WIND       PRES   REMARKS
KAHULUI        MOCLDY    75  67  76 NE14      30.08F
KAPALUA-W MAUI NOT AVBL
HANA AIRPORT   NOT AVBL
HANA*            N/A     73 N/A N/A NE9G16      N/A
HALEAKALA SUMM   N/A     45  16  31 NE13G28     N/A
MAALAEA BAY*   NOT AVBL
HALEAKALA*     NOT AVBL
KAUPO GAP*     NOT AVBL
KULA 1*          N/A     48  34  57 E3          N/A
$$

HIZ023>026-011300-
BIG ISLAND OF HAWAII COAST AND LOWER SLOPES-

CITY           SKY/WX    TMP DP  RH WIND       PRES   REMARKS
KAILUA KONA    CLEAR     76  68  76 SE10      30.01F
HILO           LGT RAIN  70  67  90 W5        30.09F FOG
HONOKAA*         N/A     66 N/A N/A VRB1        N/A
KAWAIHAE MWT*    N/A     77 N/A N/A NE7G18      N/A
KAWAIHAE*      NOT AVBL
SOUTH POINT*     N/A     70 N/A N/A N13G23      N/A
UPOLU AIRPORT*   N/A    N/A N/A N/A NE18G30     N/A
KAMUELA*       SUNNY     61  59  94 NE26      30.10S
HAKALAU*         N/A     45  43  93 W3          N/A
KALOKO-HONOKO* NOT AVBL
PALI 2*          N/A     75  70  83 S18G26      N/A
KEALAKOMO*       N/A     73  64  73 NE12G20     N/A
KAUPULEHU*     NOT AVBL
KAPAPALA*        N/A     58  55  91 NW5         N/A
LOWER KAHUKU*  NOT AVBL
PUHE CS*       NOT AVBL
PUHO CS*       NOT AVBL
PTA KEAMUKU*     N/A     55  50  82 CALM        N/A
WAIKOLOA*      NOT AVBL
$$

HIZ027>028-011300-
BIG ISLAND OF HAWAII INTERIOR AND SUMMMITS-

CITY           SKY/WX    TMP DP  RH WIND       PRES   REMARKS
BRADSHAW FIELD CLOUDY    49  42  77 SE2       30.33F
MK VISITOR CEN   N/A     48   9  20 N7          N/A
MAUNA KEA*       N/A     32 -11  15 E22         N/A  WCI  19
MAUNA LOA*       N/A     39   5  24 MISG        N/A
MAUNA LOA 1*   NOT AVBL
PTA KIPUKA*      N/A     54  54 100 SW3G14      N/A
PTA RANGE 17*    N/A     66  59  77 E14G23      N/A
PTA WEST*        N/A     66  63  88 SE12G18     N/A
NENE CABIN*    NOT AVBL
AHUMOA*        NOT AVBL
PTA PORTABLE*  NOT AVBL
PUU MALI*        N/A     63  14  15 SE14        N/A
$$

HIC003-011300-
NORTHWEST ISLANDS-

CITY           SKY/WX    TMP DP  RH WIND       PRES   REMARKS
MIDWAY ISLAND  PTCLDY    68  64  88 E13       30.26F
MIDWAY NOS*    NOT AVBL
FRENCH FRIGATE NOT AVBL
$$

PHZ110>124-180-011300-
BUOY REPORTS

STATION/POSITION TIME  TEMP    WIND        PRES    WAVE   SWELL
                       AIR SEA DIR/SP/G            HT/PER HT/DIR
                 (UTC) (F)     (DEG/KT/KT) (MB)    (FT/S) (FT/D)
BUOY 51001       1100   77 79   70/ 16/ 19 1020.4F
BUOY 51101       1150   75 76   50/ 12/ 16 1021.0F   7/13   7/330
BUOY 51100       NOT AVBL
BUOY 51002       1150   77 78   80/ 17/ 21 1015.9F   9/10   5/ 80
BUOY 51003       1150   77 78   50/ 16/ 17 1017.3F   7/10   5/ 70
BUOY 51004       1150   78 79   70/ 17/ 21 1016.3F   8/ 9   5/ 90
BARBERS PT BUOY  NOT AVBL
WAIMEA BAY BUOY  1104      78                N/A     5/11   3/320
KAILUA BAY BUOY  1111      78                N/A     7/ 9   2/100
LANAI BUOY       1115      78                N/A     3/13   2/200
BARBERS PT 2     1103      79                N/A     5/13   3/150
PAUWELA MAUI     1109      76                N/A     6/11   3/330
HILO             1112      77                N/A     7/ 9   2/ 10
KANEOHE BAY BUOY 1106      77                N/A     6/ 9   2/ 20
HANALEI KAUAI    NOT AVBL
KAHULUI HARBOR   1100   75 78   60/ 13/ 18 1018.7F
HONOLULU HARBOR  1100   76 78  100/  5/ 11 1019.5F
KILO NALU        NOT AVBL
HILO HARBOR      1100   71 76  200/  6/  7 1019.0F
MOKUOLOE         1100   76 79   90/ 12/ 16 1019.3F
NAWILIWILI       1100   75 80   40/ 10/ 13 1019.8F
WHOTS BUOY       NOT AVBL
BUOY 51028       NOT AVBL
$$

......................KEY........................................
  SKY/WX - SKY CONDITIONS/PRESENT WEATHER
  TMP    - TEMPERATURE IN FAHRENHEIT
  DWPT   - DEWPOINT IN FAHRENHEIT
  RH     - RELATIVE HUMIDITY IN PERCENT
  WIND   - DIRECTION AND SPEED /MPH FOR ISLANDS...KTS FOR BUOYS/
  PRES   - MEAN SEA LEVEL PRESSURE IN INCHES OF HG
  VSB    - VISIBILITY IN MILES
  HX     - HEAT INDEX
  WCI    - WIND CHILL INDEX
  VRB    - VARIABLE WIND DIRECTION
  N/A    - NOT AVAILABLE




USA.gov is the U.S. government's official web portal to all federal, state and local government web resources and services.